When you browse on this site, cookies collect data to enhance your experience and personalize the content and advertising you see.
Visit our Privacy Policy to learn more. By continuing to use the site, you agree to this use of cookies and data.
  • In Czech Republic
  • List of Countries
  • For 7 days
  • Water Temperature
  • Weather Map
  • Weather Widgets
  • user-avatar
    Login

    Hourly Weather Quito

    Today, 30 March, Monday

    Time Temperature Precipitation Wind Pressure Humidity
    00:00 +16°C° 0 mm 2 mps 621 mmHg 97%
    01:00 +17°C° 0 mm 2 mps 621 mmHg 97%
    02:00 +16°C° 0 mm 2 mps 620 mmHg 97%
    03:00 +16°C° 0 mm 2 mps 620 mmHg 97%
    04:00 +16°C° 0 mm 1 mps 619 mmHg 97%
    05:00 +16°C° 0 mm 1 mps 620 mmHg 96%
    06:00 +16°C° 0 mm 1 mps 621 mmHg 95%
    07:00 +18°C° 0 mm 1 mps 621 mmHg 94%
    08:00 +20°C° 0 mm 1 mps 622 mmHg 84%
    09:00 +22°C° 0 mm 1 mps 624 mmHg 75%
    10:00 +25°C° 0 mm 1 mps 625 mmHg 65%
    11:00 +26°C° 0 mm 2 mps 624 mmHg 61%
    12:00 +26°C° 0 mm 2 mps 623 mmHg 57%
    13:00 +27°C° 0 mm 3 mps 623 mmHg 54%
    14:00 +26°C° 0.4 mm 3 mps 622 mmHg 59%
    15:00 +26°C° 0.4 mm 3 mps 621 mmHg 65%
    16:00 +25°C° 0.4 mm 3 mps 620 mmHg 70%
    17:00 +23°C° 0.3 mm 2 mps 621 mmHg 77%
    18:00 +20°C° 0.3 mm 2 mps 621 mmHg 83%
    19:00 +19°C° 0.3 mm 1 mps 621 mmHg 90%
    20:00 +19°C° 0 mm 1 mps 621 mmHg 90%
    21:00 +18°C° 0 mm 1 mps 621 mmHg 90%
    22:00 +18°C° 0 mm 1 mps 621 mmHg 90%
    23:00 +17°C° 0 mm 2 mps 621 mmHg 91%

    Tomorrow, 31 March, Tuesday

    Time Temperature Precipitation Wind Pressure Humidity
    00:00 +16°C° 0 mm 2 mps 621 mmHg 92%
    01:00 +16°C° 0 mm 2 mps 621 mmHg 93%
    02:00 +16°C° 0 mm 2 mps 621 mmHg 93%
    03:00 +15°C° 0 mm 1 mps 620 mmHg 93%
    04:00 +15°C° 0 mm 1 mps 620 mmHg 92%
    05:00 +15°C° 0 mm 1 mps 621 mmHg 91%
    06:00 +16°C° 0 mm 1 mps 621 mmHg 90%
    07:00 +18°C° 0 mm 1 mps 622 mmHg 88%
    08:00 +20°C° 0 mm 1 mps 623 mmHg 78%
    09:00 +23°C° 0 mm 1 mps 624 mmHg 68%
    10:00 +26°C° 0 mm 1 mps 625 mmHg 58%
    11:00 +26°C° 0 mm 1 mps 624 mmHg 57%
    12:00 +27°C° 0 mm 1 mps 624 mmHg 55%
    13:00 +28°C° 0 mm 1 mps 623 mmHg 54%
    14:00 +27°C° 0 mm 1 mps 623 mmHg 56%
    15:00 +27°C° 0 mm 1 mps 622 mmHg 57%
    16:00 +27°C° 0 mm 1 mps 622 mmHg 58%
    17:00 +25°C° 0.1 mm 1 mps 622 mmHg 65%
    18:00 +22°C° 0.1 mm 1 mps 622 mmHg 72%
    19:00 +20°C° 0.1 mm 1 mps 622 mmHg 80%
    20:00 +20°C° 0 mm 1 mps 622 mmHg 83%
    21:00 +19°C° 0 mm 1 mps 622 mmHg 86%
    22:00 +18°C° 0 mm 1 mps 622 mmHg 90%
    23:00 +18°C° 0 mm 1 mps 621 mmHg 90%

    Day after tomorrow, 1 April, Wednesday

    Time Temperature Precipitation Wind Pressure Humidity
    00:00 +18°C° 0 mm 1 mps 621 mmHg 91%
    01:00 +16°C° 0 mm 1 mps 621 mmHg 91%
    02:00 +16°C° 0 mm 1 mps 621 mmHg 92%
    03:00 +16°C° 0 mm 1 mps 621 mmHg 93%
    04:00 +16°C° 0 mm 1 mps 621 mmHg 94%
    05:00 +18°C° 0 mm 1 mps 621 mmHg 92%
    06:00 +18°C° 0 mm 1 mps 622 mmHg 90%
    07:00 +19°C° 0 mm 1 mps 623 mmHg 87%
    08:00 +21°C° 0.1 mm 1 mps 624 mmHg 80%
    09:00 +24°C° 0.1 mm 1 mps 625 mmHg 72%
    10:00 +26°C° 0.1 mm 1 mps 625 mmHg 64%
    11:00 +27°C° 0.3 mm 1 mps 625 mmHg 61%
    12:00 +28°C° 0.3 mm 1 mps 624 mmHg 59%
    13:00 +29°C° 0.3 mm 1 mps 624 mmHg 56%
    14:00 +27°C° 1.2 mm 1 mps 623 mmHg 62%
    15:00 +26°C° 1.2 mm 1 mps 622 mmHg 67%
    16:00 +25°C° 1.2 mm 1 mps 622 mmHg 73%
    17:00 +23°C° 1.1 mm 1 mps 621 mmHg 77%
    18:00 +22°C° 1.1 mm 1 mps 621 mmHg 81%
    19:00 +18°C° 1.1 mm 0 mps 621 mmHg 85%
    20:00 +20°C° 0.2 mm 1 mps 621 mmHg 86%
    21:00 +19°C° 0.2 mm 1 mps 622 mmHg 87%
    22:00 +19°C° 0.2 mm 1 mps 622 mmHg 88%
    23:00 +19°C° 0.8 mm 1 mps 622 mmHg 90%

    2 April, Thursday

    Time Temperature Precipitation Wind Pressure Humidity
    00:00 +18°C° 0.8 mm 1 mps 622 mmHg 91%
    01:00 +18°C° 0.8 mm 1 mps 621 mmHg 93%
    02:00 +18°C° 0.5 mm 1 mps 621 mmHg 93%
    03:00 +18°C° 0.5 mm 1 mps 621 mmHg 94%
    04:00 +16°C° 0.5 mm 1 mps 621 mmHg 95%
    05:00 +18°C° 0 mm 1 mps 621 mmHg 93%
    06:00 +18°C° 0 mm 1 mps 622 mmHg 91%
    07:00 +19°C° 0 mm 1 mps 622 mmHg 89%
    08:00 +21°C° 0.1 mm 1 mps 623 mmHg 81%
    09:00 +23°C° 0.1 mm 2 mps 624 mmHg 73%
    10:00 +25°C° 0.1 mm 2 mps 625 mmHg 65%
    11:00 +26°C° 0.5 mm 2 mps 624 mmHg 65%
    12:00 +26°C° 0.5 mm 2 mps 623 mmHg 65%
    13:00 +26°C° 0.5 mm 2 mps 623 mmHg 65%
    14:00 +26°C° 1.4 mm 2 mps 622 mmHg 68%
    15:00 +25°C° 1.4 mm 1 mps 622 mmHg 70%
    16:00 +23°C° 1.4 mm 0 mps 622 mmHg 73%
    17:00 +23°C° 1.7 mm 1 mps 622 mmHg 78%
    18:00 +21°C° 1.7 mm 1 mps 622 mmHg 83%
    19:00 +19°C° 1.7 mm 1 mps 621 mmHg 89%
    20:00 +19°C° 0.8 mm 1 mps 622 mmHg 90%
    21:00 +17°C° 0.8 mm 2 mps 622 mmHg 92%
    22:00 +17°C° 0.8 mm 2 mps 622 mmHg 93%
    23:00 +17°C° 0.3 mm 2 mps 622 mmHg 94%

    3 April, Friday

    Time Temperature Precipitation Wind Pressure Humidity
    00:00 +17°C° 0.3 mm 2 mps 621 mmHg 94%
    01:00 +17°C° 0.3 mm 2 mps 621 mmHg 95%
    02:00 +16°C° 0.1 mm 2 mps 621 mmHg 95%
    03:00 +16°C° 0.1 mm 2 mps 621 mmHg 95%
    04:00 +16°C° 0.1 mm 2 mps 621 mmHg 95%
    05:00 +16°C° 0 mm 2 mps 621 mmHg 94%
    06:00 +17°C° 0 mm 2 mps 621 mmHg 93%
    07:00 +17°C° 0 mm 2 mps 622 mmHg 92%
    08:00 +19°C° 0 mm 2 mps 623 mmHg 82%
    09:00 +23°C° 0 mm 2 mps 623 mmHg 73%
    10:00 +25°C° 0 mm 2 mps 624 mmHg 64%
    11:00 +26°C° 0 mm 2 mps 624 mmHg 60%
    12:00 +27°C° 0 mm 2 mps 623 mmHg 55%
    13:00 +28°C° 0 mm 2 mps 623 mmHg 51%
    14:00 +27°C° 0 mm 2 mps 623 mmHg 54%
    15:00 +27°C° 0 mm 2 mps 622 mmHg 58%
    16:00 +26°C° 0 mm 2 mps 622 mmHg 61%
    17:00 +24°C° 0 mm 2 mps 621 mmHg 66%
    18:00 +21°C° 0 mm 2 mps 621 mmHg 72%
    19:00 +19°C° 0 mm 2 mps 621 mmHg 77%
    20:00 +18°C° 0 mm 2 mps 621 mmHg 79%
    21:00 +18°C° 0 mm 2 mps 621 mmHg 81%
    22:00 +17°C° 0 mm 2 mps 622 mmHg 82%
    23:00 +17°C° 0 mm 2 mps 621 mmHg 84%

    4 April, Saturday

    Time Temperature Precipitation Wind Pressure Humidity
    00:00 +17°C° 0 mm 2 mps 621 mmHg 86%
    01:00 +16°C° 0 mm 2 mps 621 mmHg 88%
    02:00 +16°C° 0 mm 2 mps 621 mmHg 88%
    03:00 +16°C° 0 mm 2 mps 621 mmHg 89%
    04:00 +16°C° 0 mm 2 mps 620 mmHg 89%
    05:00 +16°C° 0 mm 2 mps 621 mmHg 88%
    06:00 +17°C° 0 mm 2 mps 622 mmHg 88%
    07:00 +17°C° 0 mm 2 mps 622 mmHg 87%
    08:00 +19°C° 0 mm 2 mps 623 mmHg 78%
    09:00 +22°C° 0 mm 3 mps 624 mmHg 68%
    10:00 +25°C° 0 mm 3 mps 624 mmHg 59%
    11:00 +26°C° 0 mm 3 mps 624 mmHg 57%
    12:00 +26°C° 0 mm 3 mps 624 mmHg 54%
    13:00 +27°C° 0 mm 2 mps 623 mmHg 52%
    14:00 +27°C° 0 mm 2 mps 623 mmHg 54%
    15:00 +26°C° 0 mm 2 mps 622 mmHg 56%
    16:00 +26°C° 0 mm 1 mps 622 mmHg 58%
    17:00 +24°C° 0 mm 1 mps 622 mmHg 64%
    18:00 +22°C° 0 mm 1 mps 622 mmHg 69%
    19:00 +20°C° 0 mm 1 mps 622 mmHg 75%
    20:00 +19°C° 0 mm 1 mps 622 mmHg 76%
    21:00 +18°C° 0 mm 2 mps 622 mmHg 78%
    22:00 +17°C° 0 mm 2 mps 622 mmHg 80%
    23:00 +17°C° 0 mm 2 mps 622 mmHg 84%
    Show more